Location: Ch�teau-Arnoux
(44.0814°N, 6.0027°E)
Time: 21:30:10
(UTC+00:00)

BREEZE-M DEB (TANK) - Pass Details

Date: 15 November 2019
Orbit: 314 x 16427 km, 49.5° (Epoch: 08 December)

Event Time Altitude Azimuth Distance (km) Brightness Sun altitude
Exits shadow 04:18:29 28° 294° (WNW) 4,321 6.2 -23.7°
Maximum altitude 04:26:41 76° 16° (NNE) 1,378 4.2 -22.2°
Drops below altitude 10° 04:31:14 10° 103° (ESE) 2,191 6.5 -21.4°
Sets 04:32:36 0° 105° (ESE) 2,779 7.4 -21.2°
